Flag for Norway Weather past 2 weeks in Bardufoss, Norway

Now
19 °F

Broken clouds.


Feels Like: 5 °F
Forecast: -2 / 6 °F
Wind: 15 mph from Southeast

Location: Bardufoss

Current Time: Jan 30, 2015 at 1:57:42 PM

Latest Report: Jan 30, 2015 at 1:20 PM


Visibility: N/A

Pressure: 29.24 "Hg

Humidity: 53%

Dew point: 5 °F

Location of BardufossLocation

Historic Weather in Bardufoss — Graph

°F

Bardufoss temperature yesterday

Maximum temperature yesterday: 27 °F (at 12:50 AM)
Minimum temperature yesterday: 21 °F (at 2:50 PM)
Average temperature yesterday: 23 °F

Past Weeks' High & Low Weather Summary

 TemperatureHumidityPressure
High37 °F (Jan 27, 5:50 AM)100% (Jan 25, 5:20 PM)30.39 "Hg (Jan 25, 5:20 PM)
Low-24 °F (Jan 19, 9:50 PM)49% (Jan 30, 10:20 AM)28.82 "Hg (Jan 16, 12:50 PM)
Average5 °F78%29.60 "Hg
* Reported Jan 15 12:20 PM — Jan 30 12:50 PM, Bardufoss, Weather by CustomWeather, © 2014

Note: Actual official high and low records may vary slightly from our data, if they occured in-between our weather recording intervals... More about our weather records

Advertising

Bardufoss weather history for previous 24 hours

 ConditionsComfort  
Time TempWeatherWind HumidityBarometerVisibility
12:50 PM
Jan 30
19 °FBroken clouds.15 mph49%29.24 "HgN/A
12:20 PM19 °FBroken clouds.16 mph49%29.24 "HgN/A
11:50 AM18 °FBroken clouds.16 mph53%29.24 "HgN/A
11:20 AM19 °FBroken clouds.15 mph49%29.24 "HgN/A
10:50 AM19 °FBroken clouds.13 mph49%29.24 "HgN/A
10:20 AM19 °FBroken clouds.16 mph49%29.24 "HgN/A
9:50 AM18 °FBroken clouds.18 mph58%29.24 "HgN/A
9:20 AM18 °FPartly cloudy.18 mph58%29.24 "HgN/A
8:50 AM18 °FPartly cloudy.17 mph58%29.24 "HgN/A
8:20 AM19 °FPartly cloudy.21 mph53%29.24 "HgN/A
7:50 AM19 °FPartly cloudy.18 mph53%29.24 "HgN/A
7:20 AM19 °FPartly cloudy.22 mph53%29.24 "HgN/A
6:50 AM19 °FPartly cloudy.28 mph53%29.24 "HgN/A
6:20 AM18 °FPartly cloudy.25 mph62%29.24 "HgN/A
5:50 AM19 °FPartly cloudy.24 mph53%29.24 "HgN/A
5:20 AM18 °FPartly cloudy.23 mph62%29.27 "HgN/A
4:50 AM18 °FPartly cloudy.24 mph68%29.27 "HgN/A
3:50 AM19 °FPartly cloudy.24 mph58%29.27 "HgN/A
2:50 AM19 °FPassing clouds.26 mph58%29.27 "HgN/A
1:50 AM19 °FPassing clouds.30 mph58%29.30 "HgN/A
12:50 AM19 °FPassing clouds.21 mph63%29.30 "HgN/A
11:50 PM
Jan 29
21 °FPassing clouds.22 mph58%29.30 "HgN/A
10:50 PM21 °FPassing clouds.21 mph58%29.30 "HgN/A
9:50 PM21 °FPassing clouds.16 mph54%29.30 "HgN/A
8:50 PM21 °FPassing clouds.24 mph54%29.30 "HgN/A
7:50 PM21 °FPassing clouds.24 mph54%29.30 "HgN/A
6:50 PM21 °FPassing clouds.25 mph58%29.30 "HgN/A
6:20 PM21 °FPassing clouds.21 mph54%29.30 "HgN/A
5:50 PM21 °FPassing clouds.20 mph54%29.30 "HgN/A
5:20 PM21 °FPassing clouds.28 mph58%29.27 "HgN/A
4:50 PM21 °FPassing clouds.26 mph58%29.27 "HgN/A
4:20 PM21 °FPassing clouds.23 mph58%29.30 "HgN/A
3:50 PM21 °FPassing clouds.23 mph54%29.30 "HgN/A
3:20 PM21 °FPassing clouds.24 mph58%29.30 "HgN/A
2:50 PM21 °FPassing clouds.22 mph58%29.30 "HgN/A
2:20 PM23 °FPartly sunny.26 mph54%29.30 "HgN/A
1:50 PM23 °FPartly sunny.21 mph54%29.30 "HgN/A
1:20 PM23 °FPartly sunny.25 mph54%29.30 "HgN/A
Weather by CustomWeather, © 2014

See weather overviewHow to use our weather pages